sat.trackr.live / text

‹ back to catalog

KUIPER-00438

NORAD 68940 · 2026-098X

PAYLOAD ACTIVE UNKNOWN

§ Identity

Operator
Country
US
Launch date
2026-04-30
Launch site
FRGUI
Launch vehicle
Mass (kg)
RCS (m²)

External: N2YO · Heavens-Above · Gunter

§ Orbital elements

Epoch: 2026-05-25T02:47:20.449824Z

Period
93.86 min
Inclination
51.8726°
Eccentricity
0.0006115
Mean motion
15.34133486 rev/d
Perigee alt
459.3 km
Apogee alt
467.7 km
Semi-major
6,841.6 km
B*
4.9964e-4
RAAN
178.8808°
Arg perigee
68.1134°
Mean anomaly
292.0501°
Rev number
380

§ Raw data

KUIPER-004381 68940U 26098X   26145.11620891  .00016421  00000+0  49964-3 0  99962 68940  51.8726 178.8808 0006115  68.1134 292.0501 15.34133486  3802

JSON: /api/v1/satellites/68940 · /tle

For live sub-satellite position, see the globe view (requires WebGL).

§ Visibility from observer

Set your observer location to see the next 7 days of passes ≥ 10°. The values pass through the URL so the page stays shareable.

No JS? Fill the form by hand. The geolocation button needs JavaScript.